ECHOSTAR 21

Last updated on Thu Sep 10 2026 00:02:59 GMT+0000 (Coordinated Universal Time)

1 42749U 17032A 26252.58765499 .00000046 00000+0 00000+0 0 9997 2 42749 1.7805 1.0873 0002317 174.5850 34.7847 1.00269985 33943
UTC large
Height (km)
Speed (km/s)
/
Latitude / Longitude
Inclination (degrees)
Orbital Period (minutes)
Azimuth
Elevation
Range (km)
Doppler Factor

Next 0 passes for location: London (51.5072 / 0.1276)

No passes found over London.
ECHOSTAR 21